Shelbyville, IN

1:09 AM EDT on May 01, 2017 (GMT -0400)
Shelbyville Municipal

Weather History for KGEZ - May, 2014

Change the Weather History Date:

Saturday, May 17, 2014

  Actual Average Record
Temperature  
Mean Temperature 52 °F 63 °F  
Max Temperature 59 °F 74 °F 85 °F (2013)
Min Temperature 45 °F 53 °F 43 °F (2007)
Degree Days  
Heating Degree Days 13 4  
Month to date heating degree days 85 97  
Since 1 July heating degree days 5684 5357  
Cooling Degree Days 0 2  
Month to date cooling degree days 56 23  
Year to date cooling degree days 66 36  
Growing Degree Days 2 (Base 50)    
Moisture  
Dew Point 40 °F    
Average Humidity 63    
Maximum Humidity 86    
Minimum Humidity 40    
Precipitation  
Precipitation 0.00 in 0.18 in 0.98 in (1999)
Month to date precipitation 3.25 3.11  
Year to date precipitation 14.59 15.61  
Sea Level Pressure  
Sea Level Pressure 30.13 in    
Wind  
Wind Speed 6 mph (NW)    
Max Wind Speed 14 mph    
Max Gust Speed 18 mph    
Visibility 10 miles    
Events      
T = Trace of Precipitation, MM = Missing Value Source: NWS Daily Summary

Daily Weather History Graph

Daily Weather History Graph

Search for Another Location

Airport or City:

Trip Planner

Search our weather history database for the weather conditions in past years. The results will help you decide how hot, cold, wet, or windy it might be!

Date:

Astronomy

May. 17, 2014 Rise Set
Actual Time 6:27 AM EDT 8:52 PM EDT
Civil Twilight 5:56 AM EDT 9:23 PM EDT
Nautical Twilight 5:18 AM EDT 10:01 PM EDT
Astronomical Twilight 4:36 AM EDT 10:43 PM EDT
Moon 11:52 PM EDT (5/17) 9:09 AM EDT (5/17)
Length of Visible Light 15h 26m
Length of Day
14h 25m
Waning Gibbous, 89% of the Moon is Illuminated
May 17
Waning Gibbous
May 21
Last Quarter
May 28
New
Jun 5
First Quarter
Jun 13
Full

Hourly Weather History & Observations

Time (EDT) Temp. Windchill Dew Point Humidity Pressure Visibility Wind Dir Wind Speed Gust Speed Precip Events Conditions
12:30 AM 46.0 °F 43.1 °F 42.1 °F 86% 30.06 in 10.0 mi West 5.8 mph - N/A   Mostly Cloudy
12:53 AM 46.0 °F 43.1 °F 41.0 °F 83% 30.07 in 10.0 mi WSW 5.8 mph - N/A   Scattered Clouds
1:53 AM 46.0 °F - 43.0 °F 89% 30.06 in 10.0 mi Calm Calm - N/A   Mostly Cloudy
2:07 AM 46.9 °F - 43.0 °F 86% 30.06 in 9.0 mi West 4.6 mph - N/A   Mostly Cloudy
2:26 AM 46.9 °F - 43.0 °F 86% 30.06 in 10.0 mi WNW 4.6 mph - N/A   Overcast
2:48 AM 46.4 °F 42.9 °F 42.8 °F 87% 30.05 in 10.0 mi NW 6.9 mph - N/A   Overcast
2:53 AM 46.9 °F - 42.1 °F 83% 30.06 in 10.0 mi WNW 5.8 mph - N/A   Overcast
3:43 AM 46.9 °F - 42.1 °F 83% 30.06 in 10.0 mi NW 5.8 mph - N/A   Mostly Cloudy
3:53 AM 46.0 °F 42.5 °F 41.0 °F 83% 30.06 in 9.0 mi WNW 6.9 mph - N/A   Mostly Cloudy
4:19 AM 46.0 °F 41.4 °F 41.0 °F 83% 30.06 in 10.0 mi WNW 9.2 mph - N/A   Overcast
4:53 AM 46.0 °F 43.1 °F 41.0 °F 83% 30.09 in 10.0 mi WNW 5.8 mph - N/A   Overcast
5:09 AM 46.0 °F 42.5 °F 41.0 °F 83% 30.08 in 10.0 mi NW 6.9 mph - N/A   Overcast
5:46 AM 46.0 °F 41.4 °F 39.9 °F 79% 30.09 in 10.0 mi NW 9.2 mph - N/A   Overcast
5:53 AM 46.0 °F 41.9 °F 39.9 °F 79% 30.10 in 10.0 mi NNW 8.1 mph - N/A   Overcast
6:10 AM 46.0 °F 42.5 °F 39.9 °F 79% 30.10 in 10.0 mi WNW 6.9 mph - N/A   Overcast
6:53 AM 46.0 °F 41.9 °F 39.9 °F 79% 30.12 in 10.0 mi WNW 8.1 mph - N/A   Overcast
7:37 AM 45.0 °F 40.1 °F 39.9 °F 82% 30.13 in 10.0 mi WNW 9.2 mph - N/A   Overcast
7:53 AM 45.0 °F 40.6 °F 39.0 °F 80% 30.14 in 9.0 mi WNW 8.1 mph - N/A   Overcast
8:03 AM 45.0 °F 40.6 °F 39.9 °F 82% 30.14 in 9.0 mi WNW 8.1 mph - N/A   Overcast
8:53 AM 46.0 °F 43.1 °F 39.9 °F 79% 30.16 in 10.0 mi NW 5.8 mph - N/A   Overcast
9:20 AM 48.0 °F - 39.9 °F 74% 30.16 in 10.0 mi NW 10.4 mph - N/A   Overcast
9:50 AM 48.2 °F - 39.2 °F 71% 30.16 in 10.0 mi NW 6.9 mph - N/A   Partly Cloudy
9:53 AM 48.9 °F - 39.0 °F 69% 30.17 in 10.0 mi NW 8.1 mph - N/A   Partly Cloudy
10:53 AM 53.1 °F - 39.0 °F 59% 30.18 in 10.0 mi NW 8.1 mph - N/A   Scattered Clouds
11:53 AM 52.0 °F - 35.1 °F 53% 30.19 in 10.0 mi NW 4.6 mph - N/A   Mostly Cloudy
12:53 PM 55.0 °F - 37.9 °F 53% 30.18 in 10.0 mi NW 4.6 mph - N/A   Scattered Clouds
1:53 PM 55.9 °F - 37.0 °F 49% 30.18 in 10.0 mi NNW 10.4 mph - N/A   Overcast
2:53 PM 57.0 °F - 36.0 °F 45% 30.18 in 10.0 mi Calm Calm - N/A   Mostly Cloudy
3:53 PM 59.0 °F - 35.1 °F 41% 30.17 in 10.0 mi West 11.5 mph 16.1 mph N/A   Mostly Cloudy
4:53 PM 57.0 °F - 34.0 °F 42% 30.17 in 10.0 mi WNW 11.5 mph - N/A   Overcast
5:53 PM 55.0 °F - 36.0 °F 49% 30.18 in 10.0 mi NW 9.2 mph - N/A   Overcast
6:53 PM 55.9 °F - 37.0 °F 49% 30.19 in 10.0 mi NW 8.1 mph - N/A   Overcast
7:53 PM 54.0 °F - 36.0 °F 51% 30.19 in 10.0 mi WNW 5.8 mph - N/A   Scattered Clouds
8:53 PM 54.0 °F - 37.0 °F 53% 30.21 in 10.0 mi NNE 3.5 mph - N/A   Mostly Cloudy
9:53 PM 52.0 °F - 42.1 °F 69% 30.23 in 10.0 mi Calm Calm - N/A   Overcast
10:53 PM 48.9 °F - 43.0 °F 80% 30.24 in 10.0 mi ESE 3.5 mph - N/A   Clear
11:53 PM 46.9 °F - 42.1 °F 83% 30.25 in 10.0 mi Calm Calm - N/A   Clear